SR2WXM Weather Reports


time (UTC)temp
C
wind
direction
speed
KPH
gust
KPH
rain 1hr
cm
rain 24hr
cm
rain mn
cm
humidity
%
barometer
mb
20260507001503 8 326 4.8 8.0 0.00 0.00 0.00 96 1005.7
20260507000002 8 293 6.4 8.0 0.00 0.00 0.00 97 1005.7
20260506234502 8 256 1.6 3.2 0.00 0.00 0.00 97 1005.7
20260506233002 8 304 3.2 4.8 0.00 0.00 0.00 96 1005.7
20260506231502 8 335 4.8 9.7 0.00 0.00 0.00 96 1006.1
20260506230002 8 257 4.8 4.8 0.00 0.00 0.00 97 1005.7
20260506224502 8 238 4.8 8.0 0.00 0.00 0.00 96 1006.1
20260506223001 10 303 1.6 4.8 0.00 0.00 0.00 97 1006.1
20260506221503 10 276 1.6 3.2 0.00 0.00 0.00 97 1006.1
20260506220003 10 252 3.2 4.8 0.00 0.00 0.00 97 1005.7
20260506214503 10 247 0.0 1.6 0.00 0.00 0.00 96 1005.7
20260506213001 10 316 3.2 4.8 0.00 0.00 0.00 96 1005.0
20260506211502 10 285 4.8 4.8 0.00 0.00 0.00 96 1005.0
20260506210002 10 326 9.7 11.3 0.00 0.00 0.00 96 1005.0
20260506204501 10 276 6.4 6.4 0.00 0.00 0.00 96 1005.0
20260506203002 10 266 1.6 4.8 0.00 0.00 0.00 95 1005.0
20260506201502 10 313 3.2 4.8 0.00 0.00 0.00 95 1005.0
20260506200003 11 280 6.4 6.4 0.00 0.00 0.00 94 1005.0
20260506194502 11 244 3.2 4.8 0.00 0.00 0.00 92 1005.0
20260506193003 11 253 6.4 8.0 0.00 0.00 0.00 91 1005.0
20260506191503 11 256 8.0 9.7 0.00 0.00 0.00 89 1004.7
20260506190003 12 251 6.4 6.4 0.00 0.00 0.00 88 1004.7
20260506184502 12 333 3.2 8.0 0.00 0.00 0.00 87 1004.7
20260506183004 12 271 4.8 8.0 0.00 0.00 0.00 85 1003.7
20260506181503 13 284 4.8 4.8 0.00 0.00 0.00 83 1003.7
20260506180005 15 270 3.2 4.8 0.00 0.00 0.00 81 1003.7
20260506174502 15 265 8.0 12.9 0.00 0.00 0.00 77 1003.7
20260506173005 16 245 9.7 12.9 0.00 0.00 0.00 73 1003.7
20260506171502 17 265 12.9 12.9 0.00 0.00 0.00 72 1003.3
20260506170003 18 294 12.9 16.1 0.00 0.00 0.00 69 1003.0
20260506164502 18 229 12.9 14.5 0.00 0.00 0.00 66 1003.0
20260506163003 20 253 14.5 20.9 0.00 0.00 0.00 63 1003.0
20260506161503 20 240 4.8 8.0 0.00 0.00 0.00 64 1003.0
20260506160004 20 270 9.7 12.9 0.00 0.00 0.00 64 1003.0
20260506154502 20 241 4.8 6.4 0.00 0.00 0.00 63 1003.0
20260506153002 20 257 9.7 11.3 0.00 0.00 0.00 62 1003.0
20260506151502 18 258 8.0 12.9 0.00 0.00 0.00 64 1003.0
20260506150003 18 295 4.8 6.4 0.00 0.00 0.00 65 1003.0
20260506144501 20 248 11.3 16.1 0.00 0.00 0.00 62 1003.0
20260506143002 18 219 9.7 12.9 0.00 0.00 0.00 64 1003.0
20260506141503 20 255 9.7 11.3 0.00 0.00 0.00 62 1003.0
20260506140002 18 207 14.5 16.1 0.00 0.00 0.00 62 1003.0
20260506134501 18 249 12.9 12.9 0.00 0.00 0.00 63 1003.0
20260506133002 20 228 4.8 6.4 0.00 0.00 0.00 65 1003.0
20260506131503 18 239 12.9 16.1 0.00 0.00 0.00 64 1003.0
20260506130002 18 189 12.9 14.5 0.00 0.00 0.00 65 1003.0
20260506124502 18 228 6.4 6.4 0.00 0.00 0.00 66 1003.0
20260506123002 17 202 8.0 12.9 0.00 0.00 0.00 65 1003.0
20260506121501 18 229 6.4 9.7 0.00 0.00 0.00 65 1003.0
20260506120001 17 233 8.0 11.3 0.00 0.00 0.00 67 1003.0
20260506114502 17 218 9.7 12.9 0.00 0.00 0.00 65 1003.0
20260506113003 18 247 9.7 12.9 0.00 0.00 0.00 63 1003.0
20260506111503 16 216 12.9 14.5 0.00 0.00 0.00 68 1003.3
20260506110001 17 228 9.7 11.3 0.00 0.00 0.00 67 1003.0
20260506104502 17 208 17.7 19.3 0.00 0.00 0.00 66 1003.0
20260506103002 18 233 6.4 11.3 0.00 0.00 0.00 65 1003.0
20260506101503 18 249 12.9 20.9 0.00 0.00 0.00 64 1003.0
20260506100004 17 232 8.0 9.7 0.00 0.00 0.00 67 1003.0
20260506094503 18 232 12.9 14.5 0.00 0.00 0.00 62 1003.0
20260506093002 16 255 11.3 14.5 0.00 0.00 0.00 68 1003.0
20260506091503 17 235 6.4 6.4 0.00 0.00 0.00 66 1002.7
20260506090004 17 198 8.0 9.7 0.00 0.00 0.00 66 1002.7
20260506084503 16 225 9.7 20.9 0.00 0.00 0.00 68 1003.0
20260506083003 15 193 4.8 4.8 0.00 0.00 0.00 75 1002.3
20260506081503 15 180 3.2 4.8 0.00 0.00 0.00 75 1002.0
20260506073002 13 161 3.2 3.2 0.00 0.00 0.00 74 1002.3
20260506071502 15 235 0.0 3.2 0.00 0.00 0.00 72 1002.3
20260506061503 12 231 4.8 6.4 0.00 0.00 0.00 81 1002.3
20260506044501 10 349 8.0 11.3 0.00 0.00 0.00 97 1003.0
20260506043004 10 16 8.0 14.5 0.00 0.00 0.00 98 1003.0
20260506041503 10 86 9.7 12.9 0.00 0.00 0.00 98 1003.0
20260506040005 10 28 9.7 12.9 0.00 0.00 0.00 99 1003.0
20260506034503 10 8 8.0 8.0 0.00 0.00 0.00 99 1003.3
20260506033004 8 17 4.8 6.4 0.00 0.00 0.00 99 1003.3
20260506031502 8 28 8.0 8.0 0.00 0.00 0.00 99 1003.3
20260506030002 8 41 8.0 9.7 0.00 0.00 0.00 99 1003.3
20260506024502 8 353 4.8 6.4 0.00 0.00 0.00 99 1003.7
20260506023003 8 55 9.7 12.9 0.00 0.00 0.00 99 1004.0
20260506021503 8 26 9.7 11.3 0.00 0.00 0.00 99 1004.0
20260506020003 10 32 9.7 12.9 0.00 0.00 0.00 99 1004.0
20260506014501 10 9 8.0 9.7 0.00 0.00 0.00 99 1004.0
20260506013002 10 321 9.7 14.5 0.00 0.00 0.00 99 1004.0
20260506011502 10 85 8.0 8.0 0.00 0.00 0.00 99 1004.7
20260506010002 10 352 9.7 12.9 0.00 0.00 0.00 99 1005.0
20260506004503 10 15 6.4 9.7 0.00 0.00 0.00 99 1005.0
20260506003004 10 29 9.7 11.3 0.00 0.00 0.00 99 1005.0